Weather History for Merida, Mexico

Change the Weather History Date:

Saturday, April 5, 2014

  Actual Average Record
Temperature  
Mean Temperature 88 °F -  
Max Temperature 103 °F 95 °F 107 °F (2009)
Min Temperature 74 °F 69 °F 64 °F (2013)
Cooling Degree Days 24    
Growing Degree Days 38 (Base 50)    
Moisture  
Dew Point 65 °F    
Average Humidity 54    
Maximum Humidity 89    
Minimum Humidity 18    
Precipitation  
Precipitation 0.00 in - - ()
Sea Level Pressure  
Sea Level Pressure 29.86 in    
Wind  
Wind Speed 10 mph ()    
Max Wind Speed 18 mph    
Max Gust Speed 30 mph    
Visibility 6.3 miles    
Events      
Averages and records for this station are not official NWS values.
T = Trace of Precipitation, MM = Missing Value Source: Averaged Metar Reports

Daily Weather History Graph

Daily Weather History Graph

Search for Another Location

Airport:

Trip Planner

Search our weather history database for the weather conditions in past years. The results will help you decide how hot, cold, wet, or windy it might be!

Date:

Astronomy

Apr. 05, 2014 Rise Set
Actual Time 5:48 AM CST 6:14 PM CST
Civil Twilight 5:25 AM CST 6:36 PM CST
Nautical Twilight 4:59 AM CST 7:03 PM CST
Astronomical Twilight 4:33 AM CST 7:29 PM CST
Moon 10:21 AM CST (4/5) 11:47 PM CST (4/5)
Length of Visible Light 13h 10m
Length of Day
12h 26m
Waxing Crescent, 35% of the Moon is Illuminated
Apr 5
Waxing Crescent
Apr 7
First Quarter
Apr 15
Full
Apr 22
Last Quarter
Apr 29
New

Hourly Weather History & Observations

Time (CST) Temp. Heat Index Dew Point Humidity Pressure Visibility Wind Dir Wind Speed Gust Speed Precip Events Conditions
12:47 AM 78.8 °F - 69.8 °F 74% 29.89 in 7.0 mi ESE 11.5 mph - N/A   Partly Cloudy
1:47 AM 77.0 °F - 69.8 °F 78% 29.88 in 7.0 mi SE 9.2 mph - N/A   Clear
2:50 AM 77 °F - 72 °F 82% 29.87 in 3 mi ESE 4.5 mph - -  
2:51 AM 75.2 °F - 69.8 °F 83% 29.86 in 7.0 mi ESE 8.1 mph - N/A   Clear
3:48 AM 75.2 °F - 69.8 °F 83% 29.86 in 7.0 mi ESE 11.5 mph - N/A   Clear
4:48 AM 73.4 °F - 69.8 °F 88% 29.87 in 7.0 mi ESE 9.2 mph - N/A   Clear
5:50 AM 75 °F - 72 °F 89% 29.89 in 6 mi ESE 8.9 mph - -   Scattered Clouds
5:50 AM 73.4 °F - 69.8 °F 88% 29.89 in 5.0 mi ESE 13.8 mph - N/A   Partly Cloudy
6:47 AM 75.2 °F - 69.8 °F 83% 29.91 in 6.0 mi ESE 11.5 mph - N/A   Clear
7:30 AM 77.0 °F - 69.8 °F 78% 29.92 in 6.0 mi SE 16.1 mph - N/A   Mostly Cloudy
7:50 AM 78.8 °F - 69.8 °F 74% 29.92 in 6.0 mi SE 12.7 mph - N/A   Mostly Cloudy
8:31 AM 82.4 °F 86.3 °F 69.8 °F 66% 29.92 in 7.0 mi SE 13.8 mph 25.3 mph N/A   Mostly Cloudy
8:46 AM 84.2 °F 87.3 °F 68.0 °F 58% 29.89 in 7.0 mi ESE 12.7 mph 25.3 mph N/A   Mostly Cloudy
8:50 AM 85 °F - 72 °F 57% 29.92 in 6 mi SE 8.9 mph - -   Scattered Clouds
9:43 AM 87.8 °F 90.4 °F 66.2 °F 49% 29.90 in 7.0 mi SSE 13.8 mph 29.9 mph N/A   Scattered Clouds
10:46 AM 91.4 °F 91.4 °F 60.8 °F 36% 29.89 in 7.0 mi SSE 13.8 mph 25.3 mph N/A   Mostly Cloudy
11:49 AM 95.0 °F 92.7 °F 53.6 °F 25% 29.88 in 7.0 mi SSE 16.1 mph - N/A   Mostly Cloudy
11:50 AM 98 °F - 61 °F 21% 29.87 in 6 mi SE 8.9 mph - -   Scattered Clouds
12:47 PM 96.8 °F - 51.8 °F 22% 29.83 in 7.0 mi ESE 15.0 mph - N/A   Mostly Cloudy
1:47 PM 98.6 °F - 51.8 °F 21% 29.81 in 7.0 mi SSE 17.3 mph - N/A   Mostly Cloudy
2:50 PM 101 °F - 61 °F 18% 29.80 in 6 mi East 6.7 mph - -   Scattered Clouds
2:52 PM 98.6 °F - 48.2 °F 18% 29.81 in 7.0 mi SE 6.9 mph - N/A   Mostly Cloudy
3:51 PM 96.8 °F - 50.0 °F 20% 29.78 in 7.0 mi SSE 13.8 mph - N/A   Mostly Cloudy
4:48 PM 98.6 °F - 50.0 °F 19% 29.76 in 7.0 mi South 11.5 mph - N/A   Mostly Cloudy
5:32 PM 91.4 °F 95.4 °F 68.0 °F 46% 29.78 in 7.0 mi NNW 13.8 mph - N/A   Mostly Cloudy
5:45 PM 89.6 °F 93.4 °F 68.0 °F 49% 29.80 in 7.0 mi NW 11.5 mph - N/A   Mostly Cloudy
5:50 PM 90 °F - 68 °F 38% 29.81 in 3 mi ESE 8.9 mph - -   Scattered Clouds
6:50 PM 86.0 °F 88.2 °F 66.2 °F 51% 29.80 in 7.0 mi NNE 9.2 mph - N/A   Scattered Clouds
7:51 PM 84.2 °F 86.6 °F 66.2 °F 55% 29.83 in 7.0 mi NNW 6.9 mph - N/A   Clear
8:43 PM 86.0 °F 86.6 °F 62.6 °F 45% 29.88 in 7.0 mi SE 11.5 mph - N/A   Clear
8:50 PM 85 °F - 71 °F 54% 29.85 in 3 mi ESE 8.9 mph - -   Scattered Clouds
9:46 PM 84.2 °F 85.6 °F 64.4 °F 51% 29.88 in 7.0 mi ESE 18.4 mph - N/A   Clear
10:44 PM 80.6 °F 82.3 °F 64.4 °F 58% 29.89 in 7.0 mi ESE 15.0 mph - N/A   Clear
11:47 PM 80.6 °F 82.3 °F 64.4 °F 58% 29.90 in 7.0 mi SE 11.5 mph - N/A   Clear
11:50 PM 81 °F - 70 °F 61% 30.01 in 3 mi ESE 6.7 mph - -   Scattered Clouds